TimeCST,TemperatureF,Dew PointF,Humidity,Sea Level PressureIn,VisibilityMPH,Wind Direction,Wind SpeedMPH,Gust SpeedMPH,PrecipitationIn,Events,Conditions,WindDirDegrees,DateUTC
12:15 AM,14.7,7.3,73,30.13,10.0,West,13.8,-,N/A,,Overcast,270,2013-02-20 06:15:00
12:35 AM,14.5,6.8,71,30.13,10.0,West,17.3,21.9,N/A,,Overcast,280,2013-02-20 06:35:00
12:55 AM,14.7,6.8,71,30.14,10.0,West,16.1,19.6,N/A,,Overcast,270,2013-02-20 06:55:00
1:15 AM,14.2,7.3,74,30.15,7.0,West,16.1,-,N/A,,Overcast,270,2013-02-20 07:15:00
1:35 AM,13.6,7.5,77,30.16,5.0,West,12.7,21.9,N/A,,Overcast,280,2013-02-20 07:35:00
2:15 AM,12.9,7.5,79,30.17,7.0,West,13.8,-,N/A,,Overcast,270,2013-02-20 08:15:00
2:35 AM,12.9,7.3,78,30.17,10.0,West,13.8,18.4,N/A,,Overcast,270,2013-02-20 08:35:00
2:55 AM,12.6,6.3,76,30.18,10.0,West,12.7,19.6,N/A,,Overcast,270,2013-02-20 08:55:00
3:15 AM,12.2,5.7,75,30.18,10.0,West,13.8,19.6,N/A,,Overcast,270,2013-02-20 09:15:00
3:35 AM,12.0,5.4,75,30.18,10.0,West,12.7,-,N/A,,Overcast,270,2013-02-20 09:35:00
3:55 AM,11.5,5.0,75,30.19,10.0,West,13.8,19.6,N/A,,Overcast,270,2013-02-20 09:55:00
4:15 AM,11.5,5.4,76,30.20,7.0,West,10.4,-,N/A,,Overcast,270,2013-02-20 10:15:00
4:35 AM,11.5,5.7,78,30.20,7.0,West,13.8,-,N/A,,Overcast,280,2013-02-20 10:35:00
4:55 AM,11.5,5.9,78,30.21,7.0,West,12.7,19.6,N/A,,Overcast,280,2013-02-20 10:55:00
5:15 AM,11.3,5.9,79,30.21,7.0,West,12.7,-,N/A,,Overcast,280,2013-02-20 11:15:00
5:35 AM,11.3,5.9,79,30.21,10.0,West,11.5,-,N/A,,Overcast,270,2013-02-20 11:35:00
5:55 AM,11.3,6.1,80,30.21,10.0,West,12.7,-,N/A,,Overcast,280,2013-02-20 11:55:00
6:15 AM,11.5,6.4,80,30.22,10.0,West,13.8,-,N/A,,Overcast,270,2013-02-20 12:15:00
6:35 AM,11.3,6.1,80,30.22,10.0,West,13.8,-,N/A,,Overcast,270,2013-02-20 12:35:00
7:15 AM,11.3,5.7,78,30.23,7.0,West,12.7,-,N/A,,Overcast,270,2013-02-20 13:15:00
7:35 AM,11.3,5.7,78,30.24,4.0,West,15.0,-,N/A,,Overcast,270,2013-02-20 13:35:00
7:55 AM,11.7,6.1,78,30.24,2.5,West,12.7,16.1,N/A,,Overcast,270,2013-02-20 13:55:00
8:15 AM,12.4,7.2,80,30.25,2.5,West,12.7,-,N/A,,Overcast,270,2013-02-20 14:15:00
8:35 AM,12.9,7.9,80,30.25,2.0,West,13.8,17.3,N/A,,Overcast,270,2013-02-20 14:35:00
8:55 AM,13.6,8.6,80,30.25,2.5,West,11.5,-,N/A,,Overcast,270,2013-02-20 14:55:00
9:15 AM,14.5,9.1,79,30.26,2.5,West,13.8,17.3,N/A,,Overcast,280,2013-02-20 15:15:00
9:35 AM,15.1,10.0,80,30.27,3.0,West,13.8,-,N/A,,Overcast,280,2013-02-20 15:35:00
9:55 AM,16.0,10.6,79,30.27,4.0,West,13.8,-,N/A,,Overcast,270,2013-02-20 15:55:00
10:15 AM,16.5,11.1,79,30.28,2.5,West,15.0,18.4,N/A,,Overcast,260,2013-02-20 16:15:00
10:35 AM,16.9,11.8,81,30.28,2.5,West,16.1,-,N/A,,Overcast,270,2013-02-20 16:35:00
10:55 AM,17.1,11.7,79,30.29,3.0,West,15.0,18.4,N/A,,Overcast,280,2013-02-20 16:55:00
11:15 AM,17.6,11.8,78,30.29,5.0,WNW,13.8,19.6,N/A,,Overcast,290,2013-02-20 17:15:00
11:35 AM,18.0,11.7,76,30.29,5.0,WNW,13.8,19.6,N/A,,Overcast,300,2013-02-20 17:35:00
11:55 AM,18.7,11.7,74,30.28,5.0,WNW,13.8,18.4,N/A,,Overcast,300,2013-02-20 17:55:00
12:15 PM,19.2,12.0,74,30.28,5.0,WNW,15.0,18.4,N/A,,Overcast,300,2013-02-20 18:15:00
12:35 PM,19.8,12.0,72,30.28,7.0,NW,12.7,18.4,N/A,,Overcast,310,2013-02-20 18:35:00
12:55 PM,19.8,11.7,71,30.29,10.0,WNW,12.7,19.6,N/A,,Overcast,290,2013-02-20 18:55:00
1:15 PM,20.1,12.2,71,30.29,10.0,West,13.8,18.4,N/A,,Overcast,270,2013-02-20 19:15:00
1:35 PM,20.5,12.2,70,30.31,10.0,West,15.0,20.7,N/A,,Overcast,280,2013-02-20 19:35:00
1:55 PM,21.2,12.0,68,30.32,10.0,WNW,13.8,-,N/A,,Overcast,300,2013-02-20 19:55:00
2:15 PM,22.3,12.4,66,30.31,10.0,NW,13.8,20.7,N/A,,Overcast,310,2013-02-20 20:15:00
2:55 PM,22.8,12.4,64,30.30,10.0,NNW,11.5,-,N/A,,Clear,330,2013-02-20 20:55:00
3:15 PM,22.3,11.8,64,30.29,10.0,NNW,11.5,20.7,N/A,,Clear,330,2013-02-20 21:15:00
3:35 PM,22.3,11.8,64,30.29,10.0,North,12.7,-,N/A,,Clear,360,2013-02-20 21:35:00
3:55 PM,22.3,12.2,65,30.29,10.0,North,10.4,-,N/A,,Clear,360,2013-02-20 21:55:00
4:15 PM,21.9,11.8,65,30.29,10.0,North,9.2,-,N/A,,Clear,350,2013-02-20 22:15:00
4:35 PM,21.4,11.7,66,30.30,10.0,NNW,11.5,-,N/A,,Clear,330,2013-02-20 22:35:00
4:55 PM,20.8,11.8,68,30.30,10.0,North,10.4,-,N/A,,Clear,350,2013-02-20 22:55:00
5:15 PM,20.1,11.5,69,30.31,10.0,North,11.5,-,N/A,,Clear,350,2013-02-20 23:15:00
5:35 PM,19.6,11.5,71,30.32,10.0,North,9.2,-,N/A,,Clear,360,2013-02-20 23:35:00
6:15 PM,19.0,12.2,75,30.33,10.0,North,6.9,-,N/A,,Scattered Clouds,350,2013-02-21 00:15:00
6:35 PM,19.8,12.7,74,30.33,10.0,NNW,10.4,-,N/A,,Overcast,330,2013-02-21 00:35:00
6:55 PM,20.7,13.5,74,30.32,10.0,NNW,10.4,-,N/A,,Overcast,330,2013-02-21 00:55:00
7:15 PM,21.0,14.2,75,30.32,10.0,NW,8.1,-,N/A,,Overcast,320,2013-02-21 01:15:00
7:35 PM,21.2,14.7,76,30.32,10.0,NW,6.9,-,N/A,,Overcast,320,2013-02-21 01:35:00
7:55 PM,21.6,15.3,77,30.32,10.0,NW,5.8,-,N/A,,Overcast,320,2013-02-21 01:55:00
8:15 PM,21.9,15.6,77,30.32,10.0,NW,8.1,-,N/A,,Overcast,320,2013-02-21 02:15:00
8:35 PM,22.1,16.0,77,30.31,10.0,NNW,8.1,-,N/A,,Overcast,330,2013-02-21 02:35:00
8:55 PM,22.1,16.5,79,30.31,10.0,NNW,8.1,-,N/A,,Overcast,340,2013-02-21 02:55:00
9:15 PM,22.5,17.2,80,30.31,10.0,North,8.1,-,N/A,,Overcast,350,2013-02-21 03:15:00
9:35 PM,22.6,17.6,81,30.32,10.0,North,8.1,-,N/A,,Overcast,350,2013-02-21 03:35:00
9:55 PM,22.6,17.6,81,30.32,10.0,North,6.9,-,N/A,,Overcast,350,2013-02-21 03:55:00
10:15 PM,22.6,18.1,83,30.31,7.0,North,8.1,-,N/A,,Overcast,360,2013-02-21 04:15:00
10:35 PM,22.6,18.7,85,30.30,10.0,North,8.1,-,N/A,,Overcast,360,2013-02-21 04:35:00
10:55 PM,22.6,18.7,85,30.31,10.0,North,5.8,-,N/A,,Overcast,360,2013-02-21 04:55:00
11:15 PM,22.6,18.7,85,30.31,10.0,North,4.6,-,N/A,,Overcast,10,2013-02-21 05:15:00
11:35 PM,22.8,18.7,84,30.31,10.0,North,4.6,-,N/A,,Overcast,350,2013-02-21 05:35:00
11:55 PM,23.0,18.9,84,30.32,10.0,NNW,4.6,-,N/A,,Overcast,330,2013-02-21 05:55:00